Time,TemperatureF,DewpointF,PressureIn,WindDirection,WindDirectionDegrees,WindSpeedMPH,WindSpeedGustMPH,Humidity,HourlyPrecipIn,Conditions,Clouds,dailyrainin,SoftwareType,DateUTC
2013-04-24 00:03:00,60.0,48.0,-100.00,SSE,160,4.0,6.0,63,0.00,,,-99.99,,2013-04-24 04:03:00,
2013-04-24 00:12:00,59.0,50.0,-100.00,SSE,165,4.0,4.0,70,0.00,,,-99.99,,2013-04-24 04:12:00,
2013-04-24 00:23:00,60.0,50.0,-100.00,SSE,150,4.0,7.0,69,0.00,,,-99.99,,2013-04-24 04:23:00,
2013-04-24 00:33:00,61.0,49.0,-100.00,SSE,165,4.0,6.0,64,0.00,,,-99.99,,2013-04-24 04:33:00,
2013-04-24 00:43:00,61.0,49.0,-100.00,South,175,4.0,6.0,63,0.00,,,-99.99,,2013-04-24 04:43:00,
2013-04-24 00:52:00,62.0,48.0,-100.00,South,170,4.0,7.0,61,0.00,,,-99.99,,2013-04-24 04:52:00,
2013-04-24 01:02:00,62.0,48.0,-100.00,South,190,6.0,9.0,59,0.00,,,-99.99,,2013-04-24 05:02:00,
2013-04-24 01:10:00,63.0,47.0,-100.00,South,185,9.0,12.0,55,0.00,,,-99.99,,2013-04-24 05:10:00,
2013-04-24 01:12:00,62.0,48.0,-100.00,South,180,6.0,9.0,59,0.00,,,-99.99,,2013-04-24 05:12:00,
2013-04-24 01:22:00,62.0,47.0,-100.00,SSW,195,6.0,9.0,56,0.00,,,-99.99,,2013-04-24 05:22:00,
2013-04-24 01:32:00,63.0,47.0,-100.00,South,185,9.0,12.0,55,0.00,,,-99.99,,2013-04-24 05:32:00,
2013-04-24 01:42:00,63.0,47.0,-100.00,South,185,9.0,12.0,55,0.00,,,-99.99,,2013-04-24 05:42:00,
2013-04-24 01:52:00,63.0,47.0,-100.00,South,185,9.0,12.0,55,0.00,,,-99.99,,2013-04-24 05:52:00,
2013-04-24 02:02:00,63.0,47.0,-100.00,South,185,9.0,12.0,55,0.00,,,-99.99,,2013-04-24 06:02:00,
2013-04-24 03:22:00,58.0,50.0,-100.00,SSW,195,6.0,10.0,75,1.69,,,-99.99,,2013-04-24 07:22:00,
2013-04-24 03:32:00,57.0,51.0,-100.00,South,175,8.0,16.0,81,0.00,,,-99.99,,2013-04-24 07:32:00,
2013-04-24 03:42:00,58.0,52.0,-100.00,SSW,200,10.0,16.0,82,0.55,,,-99.99,,2013-04-24 07:42:00,
2013-04-24 03:52:00,57.0,52.0,-100.00,South,185,10.0,16.0,82,2.83,,,-99.99,,2013-04-24 07:52:00,
2013-04-24 04:02:00,57.0,53.0,-100.00,SSW,205,10.0,15.0,86,7.91,,,-99.99,,2013-04-24 08:02:00,
2013-04-24 04:12:00,56.0,54.0,-100.00,SSW,195,11.0,18.0,91,15.87,,,-99.99,,2013-04-24 08:12:00,
2013-04-24 04:21:00,56.0,54.0,-100.00,South,185,9.0,17.0,93,6.22,,,-99.99,,2013-04-24 08:21:00,
2013-04-24 04:33:00,56.0,54.0,-100.00,SSW,195,12.0,19.0,94,3.39,,,-99.99,,2013-04-24 08:33:00,
2013-04-24 04:42:00,55.0,54.0,-100.00,South,190,10.0,17.0,94,1.69,,,-99.99,,2013-04-24 08:42:00,
2013-04-24 04:52:00,55.0,54.0,-100.00,South,190,12.0,17.0,95,0.55,,,-99.99,,2013-04-24 08:52:00,
2013-04-24 05:02:00,55.0,54.0,-100.00,South,180,12.0,19.0,95,0.00,,,-99.99,,2013-04-24 09:02:00,
2013-04-24 05:11:00,55.0,54.0,-100.00,South,180,12.0,19.0,95,0.00,,,-99.99,,2013-04-24 09:11:00,
2013-04-24 05:21:00,56.0,54.0,-100.00,South,175,15.0,20.0,95,0.00,,,-99.99,,2013-04-24 09:21:00,
2013-04-24 05:33:00,56.0,54.0,-100.00,South,175,12.0,19.0,95,0.00,,,-99.99,,2013-04-24 09:33:00,
2013-04-24 05:42:00,56.0,54.0,-100.00,South,185,11.0,18.0,94,0.00,,,-99.99,,2013-04-24 09:42:00,
2013-04-24 05:53:00,56.0,54.0,-100.00,South,185,12.0,16.0,93,0.00,,,-99.99,,2013-04-24 09:53:00,
2013-04-24 06:02:00,56.0,54.0,-100.00,South,180,15.0,23.0,91,0.00,,,-99.99,,2013-04-24 10:02:00,
2013-04-24 06:12:00,56.0,54.0,-100.00,South,185,9.0,23.0,91,2.83,,,-99.99,,2013-04-24 10:12:00,
2013-04-24 06:22:00,56.0,54.0,-100.00,South,185,11.0,19.0,91,1.10,,,-99.99,,2013-04-24 10:22:00,
2013-04-24 06:33:00,56.0,54.0,-100.00,South,190,12.0,21.0,91,0.00,,,-99.99,,2013-04-24 10:33:00,
2013-04-24 06:42:00,56.0,54.0,-100.00,South,170,9.0,17.0,91,0.00,,,-99.99,,2013-04-24 10:42:00,
2013-04-24 06:52:00,56.0,54.0,-100.00,South,190,13.0,20.0,92,0.00,,,-99.99,,2013-04-24 10:52:00,
2013-04-24 07:02:00,56.0,54.0,-100.00,South,190,13.0,20.0,92,0.00,,,-99.99,,2013-04-24 11:02:00,
2013-04-24 07:11:00,56.0,54.0,-100.00,South,180,13.0,17.0,92,0.55,,,-99.99,,2013-04-24 11:11:00,
2013-04-24 07:21:00,56.0,54.0,-100.00,South,185,14.0,19.0,92,2.24,,,-99.99,,2013-04-24 11:21:00,
2013-04-24 07:32:00,55.0,54.0,-100.00,South,180,13.0,18.0,93,1.10,,,-99.99,,2013-04-24 11:32:00,
2013-04-24 07:42:00,55.0,54.0,-100.00,South,190,11.0,19.0,94,0.00,,,-99.99,,2013-04-24 11:42:00,
2013-04-24 07:52:00,55.0,54.0,-100.00,South,175,11.0,19.0,94,0.55,,,-99.99,,2013-04-24 11:52:00,
2013-04-24 08:02:00,55.0,54.0,-100.00,South,175,11.0,19.0,94,0.55,,,-99.99,,2013-04-24 12:02:00,
2013-04-24 08:11:00,55.0,54.0,-100.00,SSW,200,9.0,16.0,93,0.00,,,-99.99,,2013-04-24 12:11:00,
2013-04-24 08:22:00,56.0,54.0,-100.00,SSW,195,6.0,14.0,93,0.00,,,-99.99,,2013-04-24 12:22:00,
2013-04-24 08:32:00,56.0,54.0,-100.00,SSW,195,6.0,14.0,93,0.00,,,-99.99,,2013-04-24 12:32:00,
2013-04-24 08:42:00,56.0,54.0,-100.00,South,185,6.0,14.0,93,0.55,,,-99.99,,2013-04-24 12:42:00,
2013-04-24 08:51:00,56.0,54.0,-100.00,SW,220,7.0,14.0,93,0.00,,,-99.99,,2013-04-24 12:51:00,
2013-04-24 09:01:00,56.0,54.0,-100.00,South,190,6.0,14.0,93,0.00,,,-99.99,,2013-04-24 13:01:00,
2013-04-24 09:12:00,56.0,54.0,-100.00,SSW,195,9.0,14.0,93,0.00,,,-99.99,,2013-04-24 13:12:00,
2013-04-24 09:22:00,57.0,55.0,-100.00,SSW,205,6.0,15.0,93,0.00,,,-99.99,,2013-04-24 13:22:00,
2013-04-24 09:32:00,57.0,55.0,-100.00,SW,215,6.0,11.0,93,0.00,,,-99.99,,2013-04-24 13:32:00,
2013-04-24 09:41:00,57.0,55.0,-100.00,SSW,195,6.0,16.0,92,0.00,,,-99.99,,2013-04-24 13:41:00,
2013-04-24 09:52:00,57.0,55.0,-100.00,South,180,4.0,12.0,92,0.00,,,-99.99,,2013-04-24 13:52:00,
2013-04-24 10:01:00,58.0,55.0,-100.00,SSW,210,7.0,16.0,91,0.00,,,-99.99,,2013-04-24 14:01:00,
2013-04-24 10:11:00,58.0,56.0,-100.00,SSW,205,5.0,15.0,90,1.10,,,-99.99,,2013-04-24 14:11:00,
2013-04-24 10:21:00,58.0,56.0,-100.00,SSW,200,7.0,12.0,90,0.00,,,-99.99,,2013-04-24 14:21:00,
2013-04-24 10:32:00,59.0,56.0,-100.00,SSW,210,6.0,12.0,90,0.00,,,-99.99,,2013-04-24 14:32:00,
2013-04-24 10:41:00,59.0,56.0,-100.00,WSW,240,7.0,14.0,89,0.00,,,-99.99,,2013-04-24 14:41:00,
2013-04-24 10:51:00,52.0,49.0,-100.00,NW,305,11.0,22.0,89,1.69,,,-99.99,,2013-04-24 14:51:00,
2013-04-24 11:01:00,47.0,45.0,-100.00,North,0,6.0,16.0,93,2.24,,,-99.99,,2013-04-24 15:01:00,
2013-04-24 11:11:00,45.0,43.0,-100.00,WNW,290,6.0,10.0,95,2.24,,,-99.99,,2013-04-24 15:11:00,
2013-04-24 11:22:00,43.0,42.0,-100.00,NNW,330,7.0,10.0,96,8.50,,,-99.99,,2013-04-24 15:22:00,
2013-04-24 11:33:00,43.0,42.0,-100.00,NNW,345,6.0,11.0,97,7.36,,,-99.99,,2013-04-24 15:33:00,
2013-04-24 11:43:00,43.0,42.0,-100.00,NNW,330,6.0,7.0,97,5.67,,,-99.99,,2013-04-24 15:43:00,
2013-04-24 11:53:00,42.0,41.0,-100.00,NNW,330,6.0,10.0,97,9.06,,,-99.99,,2013-04-24 15:53:00,
2013-04-24 12:03:00,41.0,41.0,-100.00,NW,320,5.0,11.0,98,11.89,,,-99.99,,2013-04-24 16:03:00,
2013-04-24 12:12:00,40.0,40.0,-100.00,NW,315,7.0,15.0,98,15.87,,,-99.99,,2013-04-24 16:12:00,
2013-04-24 12:23:00,40.0,40.0,-100.00,NW,315,6.0,14.0,98,18.70,,,-99.99,,2013-04-24 16:23:00,
2013-04-24 12:32:00,40.0,40.0,-100.00,NW,325,7.0,16.0,98,13.58,,,-99.99,,2013-04-24 16:32:00,
2013-04-24 12:42:00,39.0,39.0,-100.00,NW,305,7.0,16.0,98,12.44,,,-99.99,,2013-04-24 16:42:00,
2013-04-24 12:52:00,39.0,39.0,-100.00,NNW,335,3.0,10.0,98,3.39,,,-99.99,,2013-04-24 16:52:00,
2013-04-24 13:02:00,39.0,39.0,-100.00,NNE,30,4.0,6.0,98,1.10,,,-99.99,,2013-04-24 17:02:00,
2013-04-24 13:12:00,39.0,39.0,-100.00,NNE,30,4.0,6.0,98,1.10,,,-99.99,,2013-04-24 17:12:00,
2013-04-24 13:22:00,39.0,39.0,-100.00,SE,130,1.0,6.0,98,1.10,,,-99.99,,2013-04-24 17:22:00,
2013-04-24 13:32:00,40.0,39.0,-100.00,North,355,4.0,6.0,98,4.53,,,-99.99,,2013-04-24 17:32:00,
2013-04-24 13:42:00,40.0,40.0,-100.00,North,5,3.0,7.0,98,1.10,,,-99.99,,2013-04-24 17:42:00,
2013-04-24 13:52:00,39.0,39.0,-100.00,NNW,345,7.0,10.0,98,9.06,,,-99.99,,2013-04-24 17:52:00,
2013-04-24 14:02:00,39.0,39.0,-100.00,NW,320,9.0,14.0,98,2.24,,,-99.99,,2013-04-24 18:02:00,
2013-04-24 14:12:00,39.0,39.0,-100.00,NW,315,7.0,15.0,98,7.91,,,-99.99,,2013-04-24 18:12:00,
2013-04-24 14:22:00,39.0,38.0,-100.00,NNW,345,11.0,17.0,98,1.10,,,-99.99,,2013-04-24 18:22:00,
2013-04-24 14:33:00,39.0,38.0,-100.00,NNW,340,4.0,12.0,98,0.55,,,-99.99,,2013-04-24 18:33:00,
2013-04-24 14:42:00,39.0,38.0,-100.00,NNW,335,6.0,14.0,98,6.22,,,-99.99,,2013-04-24 18:42:00,
2013-04-24 14:52:00,39.0,38.0,-100.00,NW,325,6.0,12.0,98,11.34,,,-99.99,,2013-04-24 18:52:00,
2013-04-24 15:02:00,39.0,38.0,-100.00,NW,310,7.0,12.0,98,3.94,,,-99.99,,2013-04-24 19:02:00,
2013-04-24 15:11:00,39.0,38.0,-100.00,NW,320,6.0,12.0,98,6.77,,,-99.99,,2013-04-24 19:11:00,
2013-04-24 15:22:00,39.0,39.0,-100.00,NW,305,6.0,12.0,98,1.69,,,-99.99,,2013-04-24 19:22:00,
2013-04-24 15:32:00,39.0,39.0,-100.00,NW,305,7.0,14.0,98,1.10,,,-99.99,,2013-04-24 19:32:00,
2013-04-24 15:42:00,39.0,39.0,-100.00,NNW,335,9.0,13.0,98,1.10,,,-99.99,,2013-04-24 19:42:00,
2013-04-24 15:52:00,40.0,39.0,-100.00,WNW,300,4.0,9.0,98,1.69,,,-99.99,,2013-04-24 19:52:00,
2013-04-24 16:02:00,40.0,39.0,-100.00,NW,315,6.0,10.0,98,0.00,,,-99.99,,2013-04-24 20:02:00,
2013-04-24 16:11:00,40.0,39.0,-100.00,NW,315,7.0,12.0,98,0.00,,,-99.99,,2013-04-24 20:11:00,
2013-04-24 16:22:00,39.0,39.0,-100.00,NNW,340,7.0,13.0,98,0.00,,,-99.99,,2013-04-24 20:22:00,
2013-04-24 16:32:00,39.0,39.0,-100.00,NW,310,13.0,20.0,98,1.69,,,-99.99,,2013-04-24 20:32:00,
2013-04-24 16:42:00,39.0,38.0,-100.00,NW,320,12.0,21.0,98,2.24,,,-99.99,,2013-04-24 20:42:00,
2013-04-24 16:52:00,38.0,38.0,-100.00,NW,305,9.0,15.0,98,5.67,,,-99.99,,2013-04-24 20:52:00,
2013-04-24 17:02:00,38.0,38.0,-100.00,NW,310,11.0,19.0,98,1.69,,,-99.99,,2013-04-24 21:02:00,
2013-04-24 17:11:00,38.0,38.0,-100.00,NW,315,10.0,16.0,98,3.39,,,-99.99,,2013-04-24 21:11:00,
2013-04-24 17:22:00,38.0,38.0,-100.00,NW,315,10.0,16.0,98,3.39,,,-99.99,,2013-04-24 21:22:00,
2013-04-24 17:33:00,37.0,37.0,-100.00,WNW,300,9.0,17.0,98,0.55,,,-99.99,,2013-04-24 21:33:00,
2013-04-24 17:42:00,37.0,37.0,-100.00,WNW,300,9.0,17.0,98,0.55,,,-99.99,,2013-04-24 21:42:00,
2013-04-24 17:52:00,37.0,36.0,-100.00,NW,305,11.0,17.0,98,1.10,,,-99.99,,2013-04-24 21:52:00,
2013-04-24 18:03:00,37.0,37.0,-100.00,WNW,300,8.0,14.0,98,2.24,,,-99.99,,2013-04-24 22:03:00,
2013-04-24 18:12:00,37.0,37.0,-100.00,WNW,300,11.0,14.0,98,3.94,,,-99.99,,2013-04-24 22:12:00,
2013-04-24 18:22:00,37.0,37.0,-100.00,NW,310,7.0,16.0,98,1.69,,,-99.99,,2013-04-24 22:22:00,
2013-04-24 18:33:00,37.0,37.0,-100.00,NW,310,9.0,15.0,98,0.55,,,-99.99,,2013-04-24 22:33:00,
2013-04-24 18:42:00,37.0,37.0,-100.00,WNW,290,6.0,17.0,98,0.55,,,-99.99,,2013-04-24 22:42:00,
2013-04-24 18:52:00,37.0,37.0,-100.00,NW,310,7.0,15.0,98,0.00,,,-99.99,,2013-04-24 22:52:00,
2013-04-24 19:02:00,37.0,37.0,-100.00,NW,305,7.0,14.0,98,2.24,,,-99.99,,2013-04-24 23:02:00,
2013-04-24 19:12:00,37.0,37.0,-100.00,WNW,295,6.0,14.0,98,1.69,,,-99.99,,2013-04-24 23:12:00,
2013-04-24 19:21:00,37.0,37.0,-100.00,NW,305,6.0,13.0,98,2.24,,,-99.99,,2013-04-24 23:21:00,
2013-04-24 19:32:00,37.0,37.0,-100.00,NW,305,6.0,13.0,98,2.24,,,-99.99,,2013-04-24 23:32:00,
2013-04-24 19:42:00,37.0,37.0,-100.00,NW,305,6.0,13.0,98,2.24,,,-99.99,,2013-04-24 23:42:00,
2013-04-24 19:51:00,37.0,37.0,-100.00,West,280,4.0,11.0,98,0.00,,,-99.99,,2013-04-24 23:51:00,
2013-04-24 20:02:00,37.0,37.0,-100.00,NW,310,4.0,11.0,98,0.00,,,-99.99,,2013-04-25 00:02:00,
2013-04-24 20:12:00,37.0,37.0,-100.00,WNW,295,5.0,10.0,98,0.00,,,-99.99,,2013-04-25 00:12:00,
2013-04-24 20:23:00,38.0,37.0,-100.00,WNW,295,3.0,12.0,98,0.00,,,-99.99,,2013-04-25 00:23:00,
2013-04-24 20:32:00,38.0,37.0,-100.00,NW,305,6.0,9.0,98,0.00,,,-99.99,,2013-04-25 00:32:00,
2013-04-24 20:42:00,37.0,37.0,-100.00,West,265,3.0,7.0,98,0.00,,,-99.99,,2013-04-25 00:42:00,
2013-04-24 20:52:00,37.0,37.0,-100.00,West,280,3.0,6.0,98,0.00,,,-99.99,,2013-04-25 00:52:00,
2013-04-24 21:02:00,37.0,37.0,-100.00,West,280,2.0,6.0,98,0.00,,,-99.99,,2013-04-25 01:02:00,
2013-04-24 21:11:00,37.0,37.0,-100.00,West,280,4.0,8.0,98,0.00,,,-99.99,,2013-04-25 01:11:00,
2013-04-24 21:23:00,37.0,37.0,-100.00,WNW,295,3.0,9.0,98,0.55,,,-99.99,,2013-04-25 01:23:00,
2013-04-24 21:32:00,37.0,37.0,-100.00,West,280,4.0,12.0,98,0.00,,,-99.99,,2013-04-25 01:32:00,
2013-04-24 21:42:00,37.0,37.0,-100.00,WNW,285,2.0,11.0,98,0.00,,,-99.99,,2013-04-25 01:42:00,
2013-04-24 21:52:00,37.0,37.0,-100.00,WNW,290,3.0,11.0,98,0.00,,,-99.99,,2013-04-25 01:52:00,
2013-04-24 22:02:00,37.0,37.0,-100.00,West,275,4.0,6.0,98,0.00,,,-99.99,,2013-04-25 02:02:00,
2013-04-24 22:11:00,37.0,37.0,-100.00,West,265,2.0,7.0,98,0.00,,,-99.99,,2013-04-25 02:11:00,
2013-04-24 22:22:00,37.0,36.0,-100.00,West,280,2.0,5.0,98,0.00,,,-99.99,,2013-04-25 02:22:00,
2013-04-24 22:32:00,36.0,36.0,-100.00,WSW,255,2.0,5.0,98,0.00,,,-99.99,,2013-04-25 02:32:00,
2013-04-24 22:42:00,36.0,36.0,-100.00,WSW,255,2.0,5.0,98,0.00,,,-99.99,,2013-04-25 02:42:00,
2013-04-24 22:51:00,36.0,36.0,-100.00,WSW,255,2.0,5.0,98,0.00,,,-99.99,,2013-04-25 02:51:00,
2013-04-24 23:02:00,36.0,36.0,-100.00,WSW,240,3.0,6.0,98,0.00,,,-99.99,,2013-04-25 03:02:00,
2013-04-24 23:11:00,36.0,36.0,-100.00,SW,230,4.0,6.0,98,0.00,,,-99.99,,2013-04-25 03:11:00,
2013-04-24 23:22:00,36.0,36.0,-100.00,SSW,210,2.0,7.0,98,0.00,,,-99.99,,2013-04-25 03:22:00,
2013-04-24 23:33:00,36.0,36.0,-100.00,SW,230,4.0,8.0,98,0.00,,,-99.99,,2013-04-25 03:33:00,
2013-04-24 23:42:00,36.0,36.0,-100.00,WSW,255,1.0,8.0,98,0.00,,,-99.99,,2013-04-25 03:42:00,
2013-04-24 23:52:00,36.0,35.0,-100.00,West,260,3.0,7.0,98,0.00,,,-99.99,,2013-04-25 03:52:00,